SWA3877 KPHX-KSAT

Flight info

Callsign SWA3877
Flight time 1h 35m
Altitude 39000
Route ECLPS1 PHASE ELP FST MOPPP DNKIN2
Aircraft B737/M-SADE2E3GIJ4RWZ/LB1D1

Departure

Time 2026-04-26 00:04
Airport Phoenix Sky Harbor International Airport (KPHX)

Arrival

Time 2026-04-26 01:40
Airport San Antonio International Airport (KSAT)
Time Latitude Longitude Altitude Speed Heading
2026-04-25 23:44 33.43402 -111.99732 1114 ft 0 kts 78°
2026-04-25 23:58 33.43400 -111.99747 1117 ft 4 kts 90°
2026-04-25 23:58 33.43407 -111.99773 1119 ft 4 kts 147°
2026-04-25 23:58 33.43421 -111.99779 1123 ft 0 kts 180°
2026-04-26 00:01 33.43412 -111.99779 1123 ft 3 kts 180°
2026-04-26 00:01 33.43382 -111.99780 1123 ft 6 kts 180°
2026-04-26 00:02 33.43328 -111.99780 1116 ft 9 kts 180°
2026-04-26 00:02 33.43260 -111.99801 1124 ft 11 kts 189°
2026-04-26 00:02 33.43214 -111.99738 1121 ft 14 kts 89°
2026-04-26 00:02 33.43214 -111.99592 1126 ft 21 kts 89°
2026-04-26 00:03 33.43213 -111.99399 1120 ft 23 kts 90°
2026-04-26 00:03 33.43150 -111.99335 1132 ft 13 kts 202°
2026-04-26 00:03 33.43104 -111.99457 1134 ft 23 kts 270°
2026-04-26 00:03 33.43104 -111.99933 1130 ft 94 kts 270°
2026-04-26 00:04 33.43101 -112.00981 1131 ft 155 kts 269°
2026-04-26 00:04 33.43086 -112.02382 1581 ft 167 kts 268°
2026-04-26 00:04 33.43050 -112.03797 2182 ft 185 kts 267°
2026-04-26 00:04 33.42969 -112.05426 2682 ft 203 kts 265°
2026-04-26 00:05 33.42885 -112.07109 3464 ft 206 kts 264°
2026-04-26 00:05 33.42524 -112.08820 3935 ft 223 kts 243°
2026-04-26 00:05 33.41829 -112.10552 4704 ft 232 kts 248°
2026-04-26 00:05 33.41276 -112.12380 5739 ft 244 kts 249°
2026-04-26 00:06 33.40638 -112.14421 6233 ft 275 kts 248°
2026-04-26 00:06 33.39652 -112.16347 7518 ft 271 kts 225°
2026-04-26 00:06 33.38061 -112.17596 8545 ft 284 kts 201°
2026-04-26 00:06 33.36068 -112.17908 9541 ft 295 kts 177°
2026-04-26 00:07 33.34090 -112.17336 10924 ft 288 kts 166°
2026-04-26 00:07 33.32156 -112.16595 12008 ft 292 kts 168°
2026-04-26 00:07 33.30211 -112.15891 12977 ft 300 kts 167°
2026-04-26 00:07 33.28334 -112.14643 13869 ft 322 kts 146°
2026-04-26 00:08 33.26689 -112.12763 14765 ft 332 kts 142°
2026-04-26 00:08 33.25043 -112.10777 15640 ft 341 kts 140°
2026-04-26 00:08 33.23680 -112.08357 16435 ft 364 kts 117°
2026-04-26 00:08 33.22833 -112.05457 17263 ft 375 kts 113°
2026-04-26 00:09 33.22058 -112.02446 18053 ft 383 kts 112°
2026-04-26 00:09 33.21294 -111.99372 18834 ft 390 kts 112°
2026-04-26 00:09 33.20513 -111.96246 19585 ft 397 kts 112°
2026-04-26 00:09 33.19704 -111.93060 20329 ft 403 kts 112°
2026-04-26 00:10 33.18874 -111.89830 21060 ft 409 kts 112°
2026-04-26 00:10 33.18024 -111.86565 21819 ft 414 kts 112°
2026-04-26 00:10 33.17166 -111.83283 22550 ft 419 kts 112°
2026-04-26 00:10 33.16287 -111.79946 23251 ft 424 kts 113°
2026-04-26 00:11 33.15387 -111.76540 23945 ft 429 kts 113°
2026-04-26 00:11 33.14485 -111.73127 24650 ft 434 kts 113°
2026-04-26 00:11 33.13573 -111.69681 25330 ft 438 kts 113°
2026-04-26 00:11 33.12650 -111.66192 25960 ft 443 kts 113°
2026-04-26 00:12 33.11722 -111.62685 26554 ft 448 kts 113°
2026-04-26 00:12 33.10771 -111.59109 27137 ft 453 kts 114°
2026-04-26 00:12 33.09816 -111.55512 27710 ft 457 kts 114°
2026-04-26 00:12 33.08855 -111.51897 28283 ft 462 kts 114°
2026-04-26 00:13 33.07895 -111.48291 28803 ft 466 kts 114°
2026-04-26 00:13 33.06826 -111.44590 29303 ft 465 kts 122°
2026-04-26 00:13 33.05240 -111.41272 29766 ft 460 kts 131°
2026-04-26 00:13 33.03482 -111.38099 30283 ft 461 kts 133°
2026-04-26 00:14 33.01661 -111.34920 30750 ft 464 kts 133°
2026-04-26 00:14 32.99835 -111.31732 31194 ft 468 kts 133°
2026-04-26 00:14 32.98025 -111.28537 31646 ft 472 kts 133°
2026-04-26 00:14 32.96201 -111.25273 32068 ft 475 kts 133°
2026-04-26 00:15 32.94371 -111.21968 32440 ft 479 kts 133°
2026-04-26 00:15 32.92532 -111.18630 32832 ft 482 kts 133°
2026-04-26 00:15 32.90700 -111.15293 33333 ft 481 kts 133°
2026-04-26 00:15 32.88878 -111.11969 33915 ft 478 kts 133°
2026-04-26 00:16 32.87062 -111.08662 34404 ft 477 kts 133°
2026-04-26 00:16 32.85240 -111.05360 34793 ft 478 kts 134°
2026-04-26 00:16 32.83411 -111.02055 35131 ft 479 kts 134°
2026-04-26 00:16 32.81570 -110.98732 35476 ft 481 kts 134°
2026-04-26 00:17 32.79734 -110.95417 35904 ft 480 kts 134°
2026-04-26 00:17 32.77904 -110.92113 36326 ft 478 kts 134°
2026-04-26 00:17 32.76093 -110.88846 36623 ft 479 kts 134°
2026-04-26 00:17 32.74253 -110.85534 36856 ft 482 kts 134°
2026-04-26 00:18 32.72407 -110.82207 37245 ft 479 kts 134°
2026-04-26 00:18 32.70581 -110.78915 37737 ft 475 kts 134°
2026-04-26 00:18 32.68769 -110.75654 38091 ft 473 kts 135°
2026-04-26 00:18 32.66943 -110.72381 38341 ft 474 kts 135°
2026-04-26 00:19 32.65122 -110.69099 38549 ft 479 kts 132°
2026-04-26 00:19 32.63700 -110.65440 38704 ft 503 kts 114°
2026-04-26 00:19 32.62778 -110.61419 38962 ft 506 kts 112°
2026-04-26 00:20 32.61092 -110.53206 38981 ft 518 kts 111°
2026-04-26 00:20 32.59334 -110.44809 38971 ft 528 kts 111°
2026-04-26 00:21 32.57469 -110.36309 38971 ft 536 kts 112°
2026-04-26 00:21 32.55568 -110.27798 38956 ft 537 kts 112°
2026-04-26 00:22 32.53652 -110.19248 38940 ft 535 kts 112°
2026-04-26 00:22 32.51726 -110.10675 38946 ft 543 kts 112°
2026-04-26 00:23 32.49765 -110.01975 38931 ft 548 kts 112°
2026-04-26 00:23 32.47793 -109.93232 38922 ft 549 kts 112°
2026-04-26 00:24 32.45813 -109.84486 38929 ft 550 kts 112°
2026-04-26 00:24 32.43849 -109.75837 38914 ft 542 kts 111°
2026-04-26 00:25 32.42441 -109.67012 38917 ft 546 kts 103°
2026-04-26 00:25 32.41471 -109.58080 38914 ft 545 kts 103°
2026-04-26 00:26 32.40441 -109.49227 38918 ft 542 kts 104°
2026-04-26 00:26 32.39309 -109.40402 38916 ft 543 kts 104°
2026-04-26 00:27 32.38156 -109.31607 38916 ft 545 kts 104°
2026-04-26 00:27 32.36999 -109.22707 38918 ft 547 kts 104°
2026-04-26 00:28 32.35816 -109.13803 38923 ft 548 kts 105°
2026-04-26 00:28 32.34309 -109.04983 38912 ft 547 kts 108°
2026-04-26 00:29 32.32661 -108.96202 38917 ft 546 kts 108°
2026-04-26 00:29 32.31306 -108.88893 38922 ft 547 kts 108°
2026-04-26 00:30 32.29448 -108.78651 38928 ft 547 kts 108°
2026-04-26 00:30 32.27862 -108.69844 38907 ft 547 kts 108°
2026-04-26 00:31 32.26539 -108.62531 38915 ft 547 kts 108°
2026-04-26 00:31 32.24938 -108.53729 38927 ft 547 kts 108°
2026-04-26 00:32 32.23330 -108.44940 38925 ft 547 kts 108°
2026-04-26 00:32 32.20908 -108.31759 38934 ft 547 kts 108°
2026-04-26 00:33 32.19288 -108.22982 38939 ft 547 kts 108°
2026-04-26 00:33 32.17672 -108.14265 38945 ft 547 kts 108°
2026-04-26 00:34 32.16036 -108.05485 38930 ft 547 kts 108°
2026-04-26 00:34 32.14397 -107.96717 38918 ft 547 kts 108°
2026-04-26 00:35 32.12752 -107.87954 38920 ft 547 kts 108°
2026-04-26 00:35 32.11101 -107.79192 38914 ft 547 kts 108°
2026-04-26 00:36 32.09444 -107.70437 38913 ft 547 kts 108°
2026-04-26 00:36 32.07790 -107.61736 38915 ft 547 kts 108°
2026-04-26 00:37 32.06119 -107.52979 38904 ft 547 kts 108°
2026-04-26 00:37 32.04442 -107.44218 38911 ft 547 kts 108°
2026-04-26 00:38 32.02762 -107.35476 38907 ft 547 kts 108°
2026-04-26 00:38 32.01073 -107.26731 38909 ft 547 kts 108°
2026-04-26 00:39 31.99389 -107.18037 38910 ft 548 kts 108°
2026-04-26 00:39 31.97686 -107.09281 38901 ft 547 kts 107°
2026-04-26 00:40 31.95983 -107.00555 38903 ft 546 kts 107°
2026-04-26 00:40 31.94273 -106.91836 38909 ft 546 kts 107°
2026-04-26 00:41 31.92568 -106.83177 38900 ft 546 kts 107°
2026-04-26 00:41 31.90845 -106.74453 38897 ft 546 kts 107°
2026-04-26 00:42 31.89118 -106.65744 38896 ft 547 kts 107°
2026-04-26 00:42 31.87385 -106.57032 38902 ft 547 kts 107°
2026-04-26 00:43 31.85651 -106.48357 38899 ft 548 kts 107°
2026-04-26 00:43 31.83900 -106.39615 38891 ft 548 kts 107°
2026-04-26 00:44 31.82141 -106.30883 38879 ft 549 kts 107°
2026-04-26 00:44 31.80269 -106.22192 38880 ft 547 kts 110°
2026-04-26 00:45 31.78102 -106.13611 38885 ft 547 kts 111°
2026-04-26 00:45 31.75907 -106.05099 38876 ft 547 kts 111°
2026-04-26 00:46 31.73738 -105.96509 38872 ft 548 kts 111°
2026-04-26 00:46 31.71597 -105.87920 38864 ft 548 kts 111°
2026-04-26 00:47 31.69456 -105.79336 38868 ft 547 kts 110°
2026-04-26 00:47 31.67306 -105.70761 38854 ft 547 kts 111°
2026-04-26 00:48 31.65149 -105.62190 38869 ft 547 kts 111°
2026-04-26 00:48 31.62990 -105.53643 38867 ft 546 kts 111°
2026-04-26 00:49 31.60824 -105.45097 38870 ft 546 kts 110°
2026-04-26 00:49 31.58655 -105.36562 38879 ft 546 kts 111°
2026-04-26 00:50 31.56479 -105.28029 38881 ft 545 kts 110°
2026-04-26 00:50 31.54301 -105.19516 38884 ft 546 kts 110°
2026-04-26 00:51 31.52130 -105.11049 38892 ft 546 kts 110°
2026-04-26 00:51 31.49938 -105.02535 38894 ft 546 kts 110°
2026-04-26 00:52 31.47734 -104.93987 38896 ft 546 kts 110°
2026-04-26 00:52 31.45532 -104.85483 38901 ft 545 kts 110°
2026-04-26 00:53 31.43344 -104.77051 38921 ft 544 kts 110°
2026-04-26 00:53 31.41133 -104.68561 38908 ft 545 kts 110°
2026-04-26 00:54 31.38916 -104.60072 38908 ft 545 kts 110°
2026-04-26 00:54 31.36692 -104.51586 38916 ft 545 kts 110°
2026-04-26 00:55 31.34462 -104.43096 38907 ft 545 kts 110°
2026-04-26 00:55 31.32237 -104.34652 38907 ft 546 kts 110°
2026-04-26 00:56 31.29997 -104.26175 38899 ft 546 kts 110°
2026-04-26 00:56 31.27748 -104.17694 38888 ft 546 kts 110°
2026-04-26 00:57 31.25493 -104.09215 38878 ft 546 kts 110°
2026-04-26 00:57 31.23233 -104.00738 38868 ft 546 kts 110°
2026-04-26 00:58 31.20978 -103.92309 38848 ft 546 kts 110°
2026-04-26 00:58 31.18703 -103.83830 38848 ft 546 kts 110°
2026-04-26 00:59 31.16427 -103.75366 38842 ft 546 kts 110°
2026-04-26 00:59 31.14148 -103.66917 38832 ft 546 kts 110°
2026-04-26 01:00 31.11871 -103.58504 38820 ft 545 kts 110°
2026-04-26 01:00 31.09583 -103.50070 38817 ft 545 kts 110°
2026-04-26 01:01 31.07292 -103.41651 38808 ft 544 kts 110°
2026-04-26 01:01 31.04996 -103.33241 38816 ft 544 kts 110°
2026-04-26 01:02 31.02695 -103.24831 38819 ft 543 kts 110°
2026-04-26 01:02 31.00391 -103.16434 38826 ft 543 kts 110°
2026-04-26 01:03 30.98100 -103.08111 38825 ft 543 kts 110°
2026-04-26 01:03 30.95787 -102.99722 38816 ft 544 kts 110°
2026-04-26 01:04 30.93547 -102.91297 38816 ft 544 kts 108°
2026-04-26 01:04 30.91473 -102.82815 38817 ft 544 kts 108°
2026-04-26 01:05 30.89404 -102.74326 38808 ft 544 kts 108°
2026-04-26 01:05 30.87316 -102.65924 38814 ft 543 kts 108°
2026-04-26 01:06 30.85192 -102.57477 38817 ft 543 kts 108°
2026-04-26 01:06 30.83063 -102.49050 38828 ft 543 kts 108°
2026-04-26 01:07 30.80925 -102.40607 38830 ft 544 kts 108°
2026-04-26 01:07 30.78788 -102.32173 38818 ft 543 kts 108°
2026-04-26 01:08 30.76649 -102.23748 38822 ft 543 kts 108°
2026-04-26 01:08 30.74519 -102.15386 38816 ft 542 kts 108°
2026-04-26 01:09 30.72372 -102.06989 38814 ft 542 kts 108°
2026-04-26 01:09 30.70221 -101.98595 38802 ft 541 kts 108°
2026-04-26 01:10 30.68065 -101.90215 38794 ft 541 kts 108°
2026-04-26 01:10 30.65903 -101.81843 38798 ft 540 kts 108°
2026-04-26 01:11 30.63752 -101.73531 38815 ft 540 kts 108°
2026-04-26 01:11 30.61583 -101.65174 38810 ft 541 kts 108°
2026-04-26 01:12 30.59411 -101.56808 38814 ft 541 kts 108°
2026-04-26 01:12 30.57228 -101.48435 38813 ft 542 kts 108°
2026-04-26 01:13 30.55034 -101.40054 38804 ft 543 kts 108°
2026-04-26 01:13 30.52831 -101.31674 38816 ft 543 kts 108°
2026-04-26 01:14 30.50621 -101.23280 38810 ft 544 kts 108°
2026-04-26 01:14 30.48418 -101.14933 38819 ft 544 kts 109°
2026-04-26 01:15 30.46182 -101.06535 38824 ft 545 kts 109°
2026-04-26 01:15 30.43943 -100.98126 38826 ft 546 kts 109°
2026-04-26 01:16 30.41700 -100.89707 38827 ft 546 kts 109°
2026-04-26 01:16 30.39450 -100.81275 38826 ft 548 kts 108°
2026-04-26 01:17 30.37194 -100.72848 38836 ft 548 kts 109°
2026-04-26 01:17 30.34942 -100.64467 38835 ft 549 kts 109°
2026-04-26 01:18 30.33808 -100.60252 38733 ft 551 kts 109°
2026-04-26 01:18 30.32655 -100.55982 38099 ft 555 kts 109°
2026-04-26 01:18 30.31510 -100.51744 37423 ft 551 kts 108°
2026-04-26 01:18 30.30361 -100.47498 36626 ft 550 kts 108°
2026-04-26 01:19 30.29224 -100.43298 35903 ft 546 kts 108°
2026-04-26 01:19 30.28468 -100.40510 35257 ft 548 kts 108°
2026-04-26 01:19 30.26942 -100.34877 34044 ft 549 kts 108°
2026-04-26 01:19 30.25812 -100.30711 33122 ft 550 kts 108°
2026-04-26 01:20 30.24670 -100.26498 32457 ft 543 kts 108°
2026-04-26 01:20 30.23544 -100.22357 31794 ft 538 kts 108°
2026-04-26 01:20 30.22799 -100.19627 31351 ft 534 kts 108°
2026-04-26 01:20 30.21683 -100.15548 30694 ft 528 kts 108°
2026-04-26 01:21 30.20580 -100.11524 30041 ft 521 kts 108°
2026-04-26 01:21 30.19492 -100.07562 29393 ft 515 kts 108°
2026-04-26 01:21 30.18417 -100.03647 28732 ft 508 kts 108°
2026-04-26 01:21 30.17347 -99.99770 28057 ft 503 kts 109°
2026-04-26 01:22 30.16216 -99.95978 27391 ft 497 kts 110°
2026-04-26 01:22 30.15031 -99.92242 26723 ft 491 kts 111°
2026-04-26 01:22 30.13837 -99.88565 26051 ft 486 kts 111°
2026-04-26 01:22 30.12652 -99.84928 25390 ft 481 kts 111°
2026-04-26 01:23 30.11487 -99.81330 24730 ft 476 kts 111°
2026-04-26 01:23 30.10340 -99.77768 24081 ft 472 kts 110°
2026-04-26 01:23 30.09204 -99.74221 23409 ft 467 kts 110°
2026-04-26 01:23 30.08089 -99.70725 22747 ft 462 kts 110°
2026-04-26 01:24 30.06988 -99.67274 22170 ft 455 kts 111°
2026-04-26 01:24 30.05893 -99.63846 21433 ft 452 kts 111°
2026-04-26 01:24 30.04810 -99.60459 20782 ft 447 kts 111°
2026-04-26 01:24 30.03739 -99.57116 20134 ft 441 kts 111°
2026-04-26 01:25 30.02688 -99.53836 19477 ft 430 kts 111°
2026-04-26 01:25 30.01666 -99.50651 18845 ft 417 kts 111°
2026-04-26 01:25 30.00673 -99.47558 18227 ft 405 kts 111°
2026-04-26 01:25 29.99721 -99.44596 17647 ft 394 kts 112°
2026-04-26 01:26 29.98778 -99.41669 17227 ft 384 kts 111°
2026-04-26 01:26 29.97852 -99.38798 16673 ft 382 kts 112°
2026-04-26 01:26 29.96921 -99.35916 16103 ft 385 kts 112°
2026-04-26 01:26 29.95984 -99.33021 15513 ft 385 kts 111°
2026-04-26 01:27 29.95056 -99.30147 14900 ft 377 kts 111°
2026-04-26 01:27 29.94152 -99.27351 14301 ft 367 kts 111°
2026-04-26 01:27 29.93263 -99.24602 13713 ft 364 kts 112°
2026-04-26 01:27 29.92379 -99.21869 13137 ft 364 kts 111°
2026-04-26 01:28 29.91452 -99.19166 12547 ft 361 kts 114°
2026-04-26 01:28 29.90484 -99.16538 11950 ft 351 kts 114°
2026-04-26 01:28 29.89526 -99.13985 11375 ft 344 kts 115°
2026-04-26 01:28 29.88595 -99.11484 10809 ft 344 kts 114°
2026-04-26 01:29 29.87659 -99.08949 10435 ft 338 kts 114°
2026-04-26 01:29 29.86776 -99.06540 10268 ft 317 kts 114°
2026-04-26 01:29 29.85941 -99.04267 10115 ft 300 kts 114°
2026-04-26 01:29 29.85137 -99.02085 9937 ft 293 kts 114°
2026-04-26 01:30 29.84347 -98.99942 9546 ft 286 kts 114°
2026-04-26 01:30 29.83579 -98.97855 9179 ft 280 kts 114°
2026-04-26 01:30 29.82789 -98.95807 8809 ft 281 kts 116°
2026-04-26 01:30 29.81937 -98.93769 8436 ft 280 kts 117°
2026-04-26 01:31 29.81094 -98.91782 8041 ft 273 kts 117°
2026-04-26 01:31 29.80271 -98.89838 7671 ft 270 kts 117°
2026-04-26 01:31 29.79458 -98.87903 7410 ft 271 kts 117°
2026-04-26 01:31 29.78640 -98.85955 7288 ft 262 kts 117°
2026-04-26 01:32 29.77872 -98.84118 7150 ft 253 kts 117°
2026-04-26 01:32 29.77126 -98.82330 7047 ft 244 kts 117°
2026-04-26 01:32 29.76393 -98.80588 6866 ft 238 kts 117°
2026-04-26 01:32 29.75677 -98.78886 6682 ft 234 kts 117°
2026-04-26 01:33 29.74969 -98.77206 6498 ft 232 kts 118°
2026-04-26 01:33 29.74261 -98.75522 6321 ft 235 kts 117°
2026-04-26 01:33 29.73550 -98.73822 6118 ft 235 kts 118°
2026-04-26 01:33 29.72692 -98.72223 5843 ft 236 kts 133°
2026-04-26 01:34 29.71590 -98.70846 5586 ft 233 kts 134°
2026-04-26 01:34 29.70516 -98.69485 5308 ft 231 kts 133°
2026-04-26 01:34 29.69444 -98.68127 5103 ft 225 kts 134°
2026-04-26 01:34 29.68399 -98.66804 4894 ft 225 kts 134°
2026-04-26 01:35 29.67351 -98.65459 4616 ft 226 kts 133°
2026-04-26 01:35 29.66306 -98.64110 4329 ft 226 kts 133°
2026-04-26 01:35 29.65276 -98.62778 4048 ft 218 kts 133°
2026-04-26 01:35 29.64290 -98.61502 3759 ft 207 kts 133°
2026-04-26 01:36 29.63363 -98.60303 3483 ft 195 kts 133°
2026-04-26 01:36 29.62489 -98.59176 3235 ft 182 kts 133°
2026-04-26 01:36 29.61684 -98.58139 2995 ft 170 kts 133°
2026-04-26 01:37 29.60199 -98.56216 2560 ft 154 kts 133°
2026-04-26 01:37 29.59510 -98.55326 2374 ft 146 kts 133°
2026-04-26 01:37 29.58863 -98.54490 2166 ft 133 kts 134°
2026-04-26 01:37 29.58275 -98.53730 2014 ft 126 kts 133°
2026-04-26 01:38 29.57685 -98.52966 1861 ft 130 kts 133°
2026-04-26 01:38 29.57077 -98.52178 1713 ft 134 kts 133°
2026-04-26 01:38 29.56455 -98.51363 1632 ft 135 kts 131°
2026-04-26 01:38 29.55831 -98.50540 1321 ft 137 kts 133°
2026-04-26 01:39 29.55202 -98.49737 1087 ft 136 kts 132°
2026-04-26 01:39 29.54578 -98.48937 937 ft 134 kts 132°
2026-04-26 01:39 29.53964 -98.48144 801 ft 126 kts 133°
2026-04-26 01:39 29.53487 -98.47537 797 ft 71 kts 132°
2026-04-26 01:40 29.53245 -98.47293 797 ft 23 kts 162°
2026-04-26 01:40 29.53102 -98.47225 797 ft 22 kts 140°
2026-04-26 01:40 29.52996 -98.47097 797 ft 22 kts 129°
2026-04-26 01:40 29.52899 -98.46967 797 ft 21 kts 130°
2026-04-26 01:41 29.52804 -98.46916 797 ft 14 kts 204°
2026-04-26 01:41 29.52751 -98.46884 797 ft 9 kts 131°
2026-04-26 01:41 29.52696 -98.46882 797 ft 9 kts 216°
2026-04-26 01:41 29.52648 -98.46929 797 ft 9 kts 235°
2026-04-26 01:42 29.52656 -98.46993 797 ft 8 kts 307°
2026-04-26 01:42 29.52673 -98.47016 797 ft 0 kts 312°